CAPE
1 0 0 0 6 30 11 4 3 0 0 1 0 0 0 0 0 0 0 0 0 0 0 0 0 0 0 0 0 0 0 0 0 0 0 0 0 0 0 0 0 0 0
3 1 1 0 0 0 0 0 0 0 0 0 0 0 0 0 0 3 2 1 0 0 0 0 0 0 0 0 0 0 0 0 0 0 0 0 0 0 0 0 0 0 0
3 3 2 1 0 0 0 0 0 0 0 0 0 0 0 0 0 1 1 0 1 0 0 0 0 0 0 0 0 0 0 0 0 0 0 0 0 0 0 0 0 0 0
4 4 2 2 1 2 2 1 0 0 0 0 0 0 0 1 0 0 1 0 0 0 0 0 0 0 0 0 0 0 0 0 0 0 0 0 0 0 0 0 0 0 0
0 0 2 1 1 1 1 1 2 1 0 0 0 0 0 0 0 1 2 0 0 0 0 0 0 0 0 0 0 0 0 0 0 0 0 0 0 0 0 0 0 0 0
1 1 1 0 0 0 1 1 1 1 2 1 0 0 0 1 1 1 2 0 1 0 1 1 0 0 0 0 0 0 0 0 0 0 0 0 0 0 0 0 0 0 0
1 0 0 0 0 0 0 0 1 1 1 1 1 1 0 0 0 0 0 0 0 1 2 1 0 0 0 0 0 0 0 0 0 0 0 0 0 0 0 0 0 0 0
0 0 0 0 0 0 0 0 0 0 2 1 1 1 0 1 3 1 0 0 0 0 0 0 0 0 0 0 0 0 0 0 0 0 0 0 0 0 0 0 0 0 0
0 0 0 0 0 0 0 0 0 0 0 1 2 1 1 1 1 1 1 1 0 0 0 0 0 0 0 0 0 0 0 0 0 0 0 0 0 0 0 0 0 0 0
0 0 0 0 0 0 0 0 0 0 0 0 0 0 1 1 1 1 0 0 1 1 1 0 0 0 0 1 1 1 1 2 2 1 1 0 0 0 0 0 0 0 0
0 0 0 0 0 0 0 0 0 0 0 0 0 0 0 0 0 1 1 0 0 0 0 1 1 1 0 2 1 1 0 2 2 2 1 0 0 1 0 0 0 0 0
0 0 0 0 0 0 0 0 0 0 0 0 0 0 0 0 0 0 0 1 0 0 0 0 0 1 1 3 1 0 0 1 2 1 0 1 1 1 0 0 0 0 0
0 0 0 0 0 0 0 0 0 0 0 0 0 0 0 0 0 0 1 1 0 0 0 0 0 1 2 2 2 0 0 1 2 2 0 1 0 0 0 0 0 0 0
0 0 0 0 0 0 0 0 0 0 0 0 0 0 0 0 0 0 0 0 1 0 0 0 1 1 1 0 0 1 0 1 0 1 0 0 0 0 0 0 0 0 0
0 0 0 0 0 0 0 0 0 0 0 0 0 0 0 0 0 0 0 1 0 0 0 1 1 1 0 0 0 0 0 0 0 0 0 0 0 0 0 0 0 0 0
0 0 0 0 0 0 0 0 0 0 0 0 0 0 0 0 0 0 0 0 0 1 0 1 0 0 0 0 0 0 0 0 0 0 0 0 0 0 0 0 0 0 0
0 0 0 0 0 0 0 0 0 0 0 0 0 0 0 0 0 0 0 0 0 0 0 0 0 0 0 0 0 0 0 0 0 0 0 0 0 0 0 0 0 0 0
0 0 0 0 0 0 0 0 0 0 0 0 0 0 0 1 0 0 0 0 0 0 0 0 0 0 0 0 0 0 0 0 0 0 0 0 0 0 0 0 0 0 0
0 0 0 0 0 0 0 0 0 0 0 0 0 0 0 0 0 0 0 0 0 0 0 0 0 0 0 0 0 0 0 0 0 0 0 0 0 0 0 0 0 0 0
0 0 0 0 0 0 0 0 0 0 0 0 0 0 0 0 0 0 0 0 0 0 0 0 0 0 0 0 0 0 0 0 0 0 0 0 0 0 0 0 0 0 0
0 0 0 0 0 0 0 0 0 0 0 0 0 0 0 0 0 0 0 0 0 0 0 0 0 0 0 0 0 0 0 0 0 0 0 0 0 0 0 0 0 0 0
0 0 0 0 0 0 0 0 0 0 0 0 0 0 0 0 0 0 0 0 0 0 0 0 0 0 0 0 0 0 0 0 0 0 0 0 0 0 0 0 0 0 0
0 0 0 0 0 0 0 0 0 0 0 0 0 0 0 0 0 0 0 0 0 0 0 0 0 0 0 0 0 0 0 0 0 0 0 0 0 0 0 0 0 0 0
0 0 0 0 0 0 0 0 0 0 0 0 0 0 0 0 0 0 0 0 0 0 0 0 0 0 0 0 0 0 0 0 0 0 0 0 0 0 0 0 0 0 0
0 0 0 0 0 0 0 0 0 0 0 0 0 0 0 0 0 0 0 0 0 0 0 0 0 0 0 0 0 0 0 0 0 0 0 0 0 0 0 0 0 0 0
0 0 0 0 0 0 0 0 0 0 0 0 0 0 0 0 0 0 0 0 0 0 0 0 0 0 0 0 0 0 0 0 0 0 0 0 0 0 0 0 0 0 0
CIN
0 0 0 0 -45 -91 -68 -76 -96 0 0 0 0 0 0 0 0 0 0 0 0 0 0 0 0 0 0 0 0 0 0 0 0 0 0 0 0 0 0 0 0 0 0
0 0 0 0 0 0 0 0 0 -7 0 0 0 0 0 0 0 0 0 0 0 0 0 0 0 0 0 0 0 0 0 0 0 0 0 0 0 0 0 0 0 0 0
0 0 0 0 0 0 0 0 0 0 0 0 0 0 0 0 0 0 0 0 0 0 0 0 0 0 0 0 0 0 0 0 0 0 0 0 0 0 0 0 0 0 0
0 0 0 0 0 0 0 0 0 0 0 0 0 0 0 0 0 0 0 0 0 0 0 0 0 0 0 0 0 0 0 0 0 0 0 0 0 0 0 0 0 0 0
0 0 0 0 0 0 0 0 0 0 0 0 0 0 0 0 0 0 0 0 0 0 0 0 0 0 0 0 0 0 0 0 0 0 0 0 0 0 0 0 0 0 0
0 0 0 0 0 0 0 0 0 0 0 0 0 0 0 0 0 0 0 0 0 0 0 0 0 0 0 0 0 0 0 0 0 0 0 0 0 0 0 0 0 0 0
0 0 0 0 0 0 0 0 0 0 0 0 0 0 0 0 0 0 0 0 0 0 0 0 0 0 0 0 0 0 0 0 0 0 0 0 0 0 0 0 0 0 0
0 0 0 0 0 0 0 0 0 0 0 0 0 0 0 0 0 0 0 0 0 0 0 0 0 0 0 0 0 0 0 0 0 0 0 0 0 0 0 0 0 0 0
0 0 0 0 0 0 0 0 0 0 0 0 0 0 0 0 0 0 0 0 0 0 0 0 0 0 0 0 0 0 0 0 0 0 0 0 0 0 0 0 0 0 0
0 0 0 0 0 0 0 0 0 0 0 0 0 0 0 0 0 0 0 0 0 0 0 0 0 0 0 0 0 0 0 0 0 0 0 0 0 0 0 0 0 0 0
0 0 0 0 0 0 0 0 0 0 0 0 0 0 0 0 0 0 0 0 0 0 0 0 0 0 0 0 0 0 0 0 0 0 0 0 0 0 0 0 0 0 0
0 0 0 0 0 0 0 0 0 0 0 0 0 0 0 0 0 0 0 0 0 0 0 0 0 0 0 0 0 0 0 0 0 0 0 0 0 0 0 0 0 0 0
0 0 0 0 0 0 0 0 0 0 0 0 0 0 0 0 0 0 0 0 0 0 0 0 0 0 0 0 0 0 0 0 0 0 0 0 0 0 0 0 0 0 0
0 0 0 0 0 0 0 0 0 0 0 0 0 0 0 0 0 0 0 0 0 0 0 0 0 0 0 0 0 0 0 0 0 0 0 0 0 0 0 0 0 0 0
0 0 0 0 0 0 0 0 0 0 0 0 0 0 0 0 0 0 0 0 0 0 0 0 0 0 0 0 0 0 0 0 0 0 0 0 0 0 0 0 0 0 0
0 0 0 0 0 0 0 0 0 0 0 0 -1 0 -1 0 0 0 0 0 0 0 0 0 0 0 0 0 0 0 0 0 0 0 0 0 0 0 0 0 0 0 0
0 0 0 0 0 0 0 0 0 0 0 0 0 0 0 0 0 -1 -1 0 0 0 0 0 0 0 0 0 0 0 0 0 0 0 0 0 0 0 0 0 0 0 0
0 0 0 0 0 0 0 0 0 0 0 0 0 0 0 0 0 0 0 0 0 0 0 0 0 0 0 0 0 0 0 0 0 0 0 0 0 0 0 0 0 0 0
0 0 0 0 0 0 0 0 0 0 0 0 0 0 0 0 0 0 0 0 0 0 0 0 0 0 0 0 0 0 0 0 0 0 0 0 0 0 0 0 0 0 0
0 0 0 0 0 0 0 0 0 0 0 0 0 0 0 0 0 0 0 0 0 0 0 0 0 0 0 0 0 0 0 0 0 0 0 0 0 0 0 0 0 0 0
0 0 0 0 0 0 0 0 0 0 0 0 0 0 0 0 0 0 0 0 0 0 0 0 0 0 0 0 0 0 0 0 0 0 0 0 0 0 0 0 0 0 0
0 0 0 0 0 0 0 0 0 0 0 0 0 0 0 0 0 0 0 0 0 0 0 0 0 0 0 0 0 0 0 0 0 0 0 0 0 0 0 0 0 0 0
0 0 0 0 0 0 0 0 0 0 0 0 0 0 0 0 0 0 0 0 0 0 0 0 0 0 0 0 0 0 0 0 0 0 0 0 0 0 0 0 0 0 0
0 0 0 0 0 0 0 0 0 0 0 0 0 0 0 0 0 0 0 0 0 0 0 0 0 0 0 0 0 0 0 0 0 0 0 0 0 0 0 0 0 0 0
0 0 0 0 0 0 0 0 0 0 0 0 0 0 0 0 0 0 0 0 0 0 0 0 0 0 0 0 0 0 0 0 0 0 0 0 0 0 0 0 0 0 0
0 0 0 0 0 0 0 0 0 0 0 0 0 0 0 0 0 0 0 0 0 0 0 0 0 0 0 0 0 0 0 0 0 0 0 0 0 0 0 0 0 0 0
Wind_Speed
32 31 31 30 29 29 27 26 25 27 26 26 25 25 30 30 28 25 31 33 32 31 31 33 32 29 29 29 27 27 27 26 30 26 23 22 20 19 19 19 19 20 21
25 27 25 25 24 24 26 25 24 27 26 29 28 26 25 31 31 30 29 31 29 31 33 33 34 31 31 30 30 29 29 27 27 29 25 24 23 21 21 21 22 22 23
19 21 22 21 21 21 22 24 26 26 26 27 29 33 32 27 29 31 33 29 36 33 32 35 36 32 32 31 30 30 28 28 27 28 27 25 25 22 23 23 23 23 24
15 16 18 18 19 19 19 19 21 23 25 25 28 30 30 30 29 28 27 34 32 33 29 33 33 32 31 29 30 30 28 28 27 28 27 27 25 24 23 25 27 25 24
9 10 13 14 15 17 18 19 20 22 24 25 25 26 25 27 30 29 26 27 29 28 33 33 31 33 29 26 25 26 25 26 26 26 28 27 26 25 25 24 26 26 26
5 8 11 13 15 18 20 20 21 22 23 25 26 26 27 29 28 29 30 28 31 31 30 31 30 28 27 25 26 24 25 26 26 26 28 31 27 25 24 25 26 28 33
5 7 9 12 14 17 20 21 23 24 24 25 26 28 29 28 27 27 27 32 31 31 31 30 30 31 28 28 28 26 25 26 27 28 30 30 30 28 26 26 25 26 27
6 8 11 12 14 16 18 21 23 24 25 26 26 25 25 26 26 25 24 25 28 33 33 29 28 28 29 30 30 30 30 29 30 30 31 30 29 24 24 27 25 23 25
9 9 11 13 14 15 17 19 21 23 25 26 26 25 26 26 25 26 25 26 26 28 31 31 32 32 29 28 30 29 30 29 28 27 25 23 24 22 20 20 25 27 30
10 13 14 14 15 16 17 18 19 20 21 22 24 26 26 27 27 27 27 27 29 28 28 27 25 26 24 24 27 28 32 31 29 27 25 22 21 21 20 25 25 27 28
12 13 15 16 17 17 17 18 19 19 19 20 21 22 24 25 28 28 28 27 30 30 30 29 29 28 27 26 26 26 28 24 23 22 20 21 20 20 21 21 20 21 25
15 16 18 18 19 19 18 19 19 19 19 20 20 21 21 22 24 26 26 26 27 29 30 29 29 30 30 29 28 28 26 24 23 24 23 23 23 22 21 19 19 19 21
19 20 20 20 20 20 20 20 20 20 20 21 22 22 23 23 22 21 19 20 21 25 26 27 28 29 29 29 28 26 24 24 25 25 25 25 23 21 18 18 18 18 18
21 21 21 22 22 22 21 21 21 22 22 22 23 24 25 24 23 23 22 22 23 24 24 24 25 25 25 25 23 21 21 22 23 24 23 21 18 17 19 17 18 17 19
25 25 24 24 24 24 24 23 23 23 23 24 25 24 25 25 25 25 24 23 23 23 23 23 24 23 22 21 20 19 19 19 20 19 19 18 18 17 17 15 17 17 19
27 27 27 27 27 26 26 26 24 24 24 23 23 24 24 25 26 26 25 24 21 19 20 21 21 21 20 19 19 18 18 17 17 16 16 16 16 15 15 15 14 15 15
28 29 29 29 29 29 29 28 29 27 26 24 25 25 25 26 26 26 25 25 24 19 21 20 19 18 17 17 17 17 17 16 14 14 14 13 12 12 12 12 12 13 15
27 28 29 30 30 30 30 29 29 30 30 29 27 28 27 27 28 24 23 22 24 21 22 20 19 18 17 16 15 15 14 14 14 13 12 11 11 10 11 11 12 13 13
29 30 30 30 30 30 30 29 28 29 30 30 29 27 27 27 24 23 24 20 20 20 19 19 19 19 18 18 17 16 14 14 13 13 12 11 11 10 10 10 9 9 9
29 29 29 29 30 30 30 30 30 29 29 29 29 28 27 25 24 23 22 20 18 17 17 18 18 18 18 18 17 16 15 14 13 13 12 12 10 10 9 8 7 8 10
29 28 29 30 30 29 27 28 29 29 28 28 27 26 27 26 25 23 22 19 19 18 16 15 15 15 15 14 14 14 14 13 12 10 9 9 9 8 7 7 7 8 9
28 29 30 31 30 29 27 26 26 28 28 27 26 25 25 24 24 24 22 21 20 19 19 18 16 15 14 12 11 10 10 9 9 9 7 6 5 4 4 5 6 8 9
29 30 30 30 29 29 28 26 26 26 28 27 27 26 24 24 23 23 22 22 20 19 17 15 15 14 12 11 10 10 8 8 6 5 5 4 3 4 5 5 7 9 11
29 29 29 29 29 29 28 28 26 27 26 27 27 27 24 23 22 22 22 21 21 19 17 14 12 11 10 9 8 7 5 4 4 4 4 3 3 4 5 6 8 9 10
29 29 28 28 28 29 29 28 28 28 27 27 27 26 25 23 23 21 20 20 20 18 17 15 12 9 7 6 6 5 5 4 4 4 4 4 4 5 6 7 8 8 9
28 28 28 27 27 27 27 27 27 28 28 27 28 27 25 24 23 23 21 19 18 18 17 15 13 11 9 8 7 6 6 6 6 5 5 4 5 5 6 7 7 8 9
Wind_Direction
225 226 231 231 230 231 236 239 245 242 245 244 245 248 250 250 252 245 245 246 244 246 249 247 249 251 253 255 260 263 266 269 271 277 282 285 284 284 288 293 298 301 304
223 223 229 231 230 232 238 244 245 249 251 251 252 252 255 252 251 251 249 250 253 246 249 251 251 252 253 256 258 260 263 267 270 272 278 281 284 284 288 291 296 300 302
223 224 227 233 235 241 247 250 251 253 255 257 256 252 251 257 257 259 258 258 252 252 251 250 253 253 254 256 259 259 263 265 269 272 275 280 283 284 288 292 295 299 302
226 227 231 239 244 248 255 256 260 259 259 262 261 258 257 257 257 260 261 255 257 256 255 257 255 256 257 258 258 260 260 263 267 270 274 278 282 286 288 289 291 295 299
223 228 237 245 250 254 260 267 272 269 267 267 266 264 264 261 255 259 261 262 259 263 256 258 258 257 255 259 260 262 262 262 264 267 272 277 279 284 284 290 291 295 298
239 245 256 260 265 267 269 273 278 278 276 272 269 268 264 265 267 262 259 259 262 262 263 261 261 261 260 262 263 263 261 260 263 266 271 274 275 282 288 288 290 292 294
282 281 279 281 280 279 277 277 278 278 281 276 275 272 269 269 266 267 265 263 260 263 264 266 264 262 263 265 266 265 265 264 266 266 270 272 277 279 283 285 288 292 295
313 307 300 299 296 293 289 287 284 283 281 278 278 276 275 272 270 268 266 268 268 261 262 264 265 263 262 264 267 268 269 268 268 271 273 276 279 279 280 286 282 291 301
327 321 314 316 310 306 305 300 296 289 284 281 280 279 275 276 274 270 269 268 267 269 267 264 263 265 265 265 268 269 270 269 272 273 275 276 277 281 278 283 282 287 291
328 329 333 330 323 319 314 311 307 302 295 289 283 281 281 278 278 274 269 269 269 270 270 269 268 267 267 265 269 269 268 269 266 271 273 274 275 274 274 279 280 281 289
327 335 335 332 331 326 321 318 314 312 308 302 294 291 288 286 280 277 274 270 269 268 268 268 268 268 267 265 265 268 270 270 267 266 267 271 274 274 277 282 284 285 287
336 341 340 338 336 332 328 323 318 313 309 306 302 299 297 294 292 282 276 273 271 270 270 270 270 268 268 267 266 269 269 264 263 264 265 268 269 273 277 280 285 289 294
343 344 340 336 332 327 326 322 318 316 310 305 301 298 297 296 295 296 290 280 276 275 274 273 272 271 269 268 266 265 263 264 264 263 264 267 269 273 275 279 286 291 298
343 339 336 334 331 330 327 322 316 310 308 305 300 297 295 295 294 293 290 286 282 281 280 278 276 275 272 269 265 262 263 265 264 264 264 267 269 269 272 277 281 285 292
348 342 337 334 328 323 322 320 317 316 310 302 299 298 295 292 291 292 290 287 286 283 281 278 276 273 270 266 264 263 265 265 266 267 265 265 266 268 272 275 282 287 292
346 342 336 330 327 325 321 318 317 315 311 310 309 301 298 295 292 290 287 287 287 287 284 279 275 271 268 264 262 263 266 266 268 267 267 265 264 267 271 278 283 287 292
345 343 340 339 336 329 324 319 309 309 310 309 306 304 301 297 296 291 288 283 282 282 282 279 277 273 270 266 264 263 265 267 268 267 266 264 264 267 269 276 282 288 295
348 347 345 343 341 336 329 321 316 306 300 301 302 301 300 299 297 294 292 287 281 279 279 277 275 273 272 269 266 264 265 266 268 267 266 265 265 264 269 275 281 290 296
338 339 341 340 340 337 334 327 318 309 303 299 300 300 300 297 298 297 295 287 282 280 279 278 276 274 271 269 267 266 264 264 265 267 266 265 265 264 271 276 283 294 301
339 341 341 341 338 336 334 326 319 311 306 303 298 296 296 296 294 294 295 288 286 281 281 281 279 276 274 270 267 265 262 262 264 266 266 264 265 266 267 271 280 290 306
341 342 339 337 335 336 337 334 324 314 307 302 299 297 292 287 286 288 287 288 285 281 279 282 282 280 278 275 270 265 261 261 260 258 257 261 264 265 270 273 289 304 307
338 336 333 330 331 332 332 333 329 317 308 302 299 299 294 290 284 281 282 282 282 280 278 277 278 277 276 273 266 261 257 255 257 254 251 247 245 247 264 281 297 308 315
332 332 331 330 330 328 327 328 325 319 307 300 295 294 295 289 285 280 278 278 280 281 280 278 274 273 274 272 268 262 253 248 240 221 200 197 226 250 272 293 306 312 315
328 329 329 328 328 326 324 322 319 313 306 297 293 289 290 289 285 280 277 275 274 275 276 275 274 269 266 266 265 259 247 231 219 208 206 216 246 275 295 305 313 318 327
325 326 327 326 326 325 323 320 315 307 300 293 289 288 285 284 282 282 279 274 271 271 271 269 266 263 255 248 245 241 233 221 224 229 248 261 272 286 300 309 317 325 332
322 323 324 325 325 325 324 321 315 306 297 292 285 282 282 280 277 275 275 275 270 266 265 264 259 256 253 248 243 238 238 242 248 256 265 270 278 290 302 311 320 327 334